Zurück zum Katalog

STARLINK-38149

AktivKommunikationSSO
NORAD 100169·PAYLOAD·🇺🇸 United States

Gestartet Jul 25, 2026 von Vandenberg Space Force Base

Loading…

Nächste Überflüge (nächste 24 Stunden)

TLE

AktuellSource: Space-Track

Epoche: Sep 14, 2026, 22:37 UTC

1 A0169U 26171X   26257.94246139  .00014619  00000-0  45405-3 0  9995
2 A0169  97.2836 290.4553 0001041  70.7131 289.4224 15.33459890  9283

Verfolge STARLINK-38149 in Echtzeit mit AllMySat

Download on the App Store